User: anonymous   Login
Location: Unspecified
(0.0000°N, 0.0000°E)
Time: 17:00:11
(UTC+00:00)
Language:

RAX-2 - Orbit

View from above orbital plane
View from above orbital plane
View from above satellite
View from above satellite

Ground track
Ground track

The orbit data is extracted from the following two-line orbital elements,

1 37853U 11061D   17018.36367647  .00003037  00000-0  17900-3 0  9997
2 37853 101.7109 169.5730 0177658 170.5419 189.9209 15.00836952284167
Epoch (UTC): 18 January 2017 08:43:41
Eccentricity: 0.0177658
inclination: 101.7109°
perigee height: 441 km
apogee height: 687 km
right ascension of ascending node: 169.5730°
argument of perigee: 170.5419°
revolutions per day: 15.00836952
mean anomaly at epoch: 189.9209°
orbit number at epoch: 28416

The dashed part of the orbit path shows where the satellite is in the earth's shadow,  

DLR